This demonstration page uses our WeatherBlox Daily Observations layout. Learn more.

Left ArrowRight Arrow

Hourly Observations for January 10, 2017

Temp ( °F °C ) Dew Point ( °F °C ) Humidity (%) Winds ( mph kmh ) Pressure ( in mb ) Visibility ( mi km ) Precip ( " mm )
12:16 am 00:16 Clear 21 -6 10 -12 63 63 SE 5 7 30.62 1037 10 16 N/A
12:36 am 00:36 Clear 21 -6 10 -12 63 63 SSE 7 11 30.62 1037 10 16 N/A
12:56 am 00:56 Clear 21 -6 10 -12 63 63 SSE 6 9 30.59 1036 10 16 N/A
1:16 am 01:16 Clear 21 -6 10 -12 63 63 SSE 6 9 30.59 1036 10 16 N/A
1:36 am 01:36 Clear 21 -6 10 -12 63 63 SSE 6 9 30.59 1036 10 16 N/A
1:56 am 01:56 Clear 21 -6 10 -12 63 63 SSE 5 7 30.59 1036 10 16 N/A
2:16 am 02:16 Clear 21 -6 10 -12 63 63 SSE 5 7 30.59 1036 10 16 N/A
2:36 am 02:36 Clear 21 -6 10 -12 63 63 S 5 7 30.59 1036 10 16 N/A
2:56 am 02:56 Clear 21 -6 10 -12 63 63 SSE 3 6 30.59 1036 10 16 N/A
3:16 am 03:16 Clear 21 -6 10 -12 63 63 SSE 5 7 30.59 1036 10 16 N/A
3:36 am 03:36 Clear 21 -6 10 -12 63 63 SSE 3 6 30.59 1036 10 16 N/A
3:56 am 03:56 Clear 21 -6 10 -12 63 63 SSE 5 7 30.59 1036 10 16 N/A
4:16 am 04:16 Clear 21 -6 12 -11 68 68 N N/A 30.59 1036 10 16 N/A
4:36 am 04:36 Clear 21 -6 10 -12 63 63 SSE 6 9 30.56 1035 10 16 N/A
4:56 am 04:56 Clear 21 -6 10 -12 63 63 SSE 6 9 30.56 1035 10 16 N/A
5:16 am 05:16 Clear 21 -6 10 -12 63 63 SSE 6 9 30.56 1035 10 16 N/A
5:36 am 05:36 Clear 21 -6 10 -12 63 63 SSE 3 6 30.56 1035 10 16 N/A
5:56 am 05:56 Clear 19 -7 10 -12 68 68 S 3 6 30.59 1036 10 16 N/A
6:16 am 06:16 Clear 21 -6 12 -11 68 68 N N/A 30.59 1036 10 16 N/A
6:36 am 06:36 Clear 21 -6 12 -11 68 68 SE 3 6 30.56 1035 10 16 N/A
6:56 am 06:56 Partly Cloudy 21 -6 12 -11 68 68 SE 5 7 30.56 1035 10 16 N/A
7:16 am 07:16 Mostly Cloudy 21 -6 12 -11 68 68 S 3 6 30.59 1036 10 16 N/A
7:36 am 07:36 Cloudy 23 -5 12 -11 63 63 SE 7 11 30.56 1035 10 16 N/A
7:56 am 07:56 Cloudy 23 -5 12 -11 63 63 SSE 9 15 30.56 1035 10 16 N/A
8:16 am 08:16 Cloudy 25 -4 12 -11 59 59 S 9 15 30.53 1034 10 16 N/A
8:36 am 08:36 Cloudy 25 -4 14 -10 63 63 SSW 5 7 30.59 1036 10 16 N/A
8:56 am 08:56 Cloudy 25 -4 14 -10 63 63 SSW 3 6 30.62 1037 10 16 N/A
9:17 am 09:17 Cloudy with Light Snow 25 -4 16 -9 69 69 SSW 3 6 30.62 1037 7 11 N/A
10:16 am 10:16 Cloudy 25 -4 18 -8 74 74 SE 9 15 30.53 1034 10 16 N/A
10:36 am 10:36 Cloudy 27 -3 16 -9 64 64 SSE 13 20 30.53 1034 10 16 N/A
10:56 am 10:56 Cloudy 28 -2 16 -9 59 59 undefined N/A 30.53 1034 10 16 N/A
11:16 am 11:16 Cloudy 28 -2 16 -9 59 59 undefined N/A 30.53 1034 10 16 N/A
11:36 am 11:36 Cloudy 30 -1 16 -9 55 55 undefined N/A 30.50 1033 10 16 N/A
11:56 am 11:56 Cloudy 30 -1 16 -9 55 55 undefined N/A 30.48 1032 10 16 N/A
12:16 pm 12:16 Cloudy 32 undefined 16 -9 51 51 undefined N/A 30.48 1032 10 16 N/A
12:37 pm 12:37 Cloudy 34 1 16 -9 48 48 undefined N/A 30.45 1031 10 16 N/A
12:56 pm 12:56 Mostly Cloudy 34 1 16 -9 48 48 undefined N/A 30.45 1031 10 16 N/A
1:16 pm 13:16 Mostly Cloudy 34 1 16 -9 48 48 undefined N/A 30.42 1030 10 16 N/A
1:36 pm 13:36 Cloudy 34 1 16 -9 48 48 undefined N/A 30.42 1030 10 16 N/A
1:56 pm 13:56 Cloudy 34 1 16 -9 48 48 undefined N/A 30.42 1030 10 16 N/A
2:16 pm 14:16 Cloudy 34 1 16 -9 48 48 undefined N/A 30.39 1029 10 16 N/A
2:36 pm 14:36 Cloudy 34 1 16 -9 48 48 undefined N/A 30.42 1030 10 16 N/A
2:56 pm 14:56 Cloudy 36 2 16 -9 44 44 undefined N/A 30.39 1029 10 16 N/A
3:16 pm 15:16 Cloudy 36 2 16 -9 44 44 undefined N/A 30.39 1029 10 16 N/A
3:37 pm 15:37 Cloudy 36 2 16 -9 44 44 undefined N/A 30.39 1029 10 16 N/A
3:56 pm 15:56 Cloudy 36 2 18 -8 48 48 undefined N/A 30.39 1029 10 16 N/A
4:16 pm 16:16 Cloudy 36 2 18 -8 48 48 undefined N/A 30.39 1029 10 16 N/A
4:36 pm 16:36 Cloudy 36 2 18 -8 48 48 undefined N/A 30.36 1028 10 16 N/A
4:56 pm 16:56 Cloudy 36 2 18 -8 48 48 undefined N/A 30.36 1028 10 16 N/A
5:16 pm 17:16 Cloudy 36 2 18 -8 48 48 undefined N/A 30.36 1028 10 16 N/A
5:36 pm 17:36 Cloudy 36 2 18 -8 48 48 undefined N/A 30.36 1028 10 16 N/A
5:56 pm 17:56 Cloudy 36 2 18 -8 48 48 undefined N/A 30.36 1028 10 16 N/A
6:17 pm 18:17 Cloudy 36 2 18 -8 48 48 undefined N/A 30.36 1028 10 16 N/A
6:36 pm 18:36 Cloudy 37 3 18 -8 45 45 undefined N/A 30.33 1027 10 16 N/A
6:56 pm 18:56 Cloudy 37 3 18 -8 45 45 undefined N/A 30.33 1027 10 16 N/A
7:16 pm 19:16 Cloudy 37 3 18 -8 45 45 undefined N/A 30.33 1027 10 16 N/A
7:36 pm 19:36 Cloudy 37 3 18 -8 45 45 undefined N/A 30.30 1026 10 16 N/A
7:56 pm 19:56 Cloudy 37 3 18 -8 45 45 undefined N/A 30.27 1025 10 16 N/A
8:15 pm 20:15 Cloudy 37 3 18 -8 45 45 undefined N/A 30.27 1025 10 16 N/A
8:37 pm 20:37 Cloudy 37 3 18 -8 45 45 undefined N/A 30.24 1024 10 16 N/A
8:55 pm 20:55 Cloudy 39 4 18 -8 42 42 undefined N/A 30.24 1024 10 16 N/A
9:15 pm 21:15 Cloudy 39 4 18 -8 42 42 undefined N/A 30.21 1023 10 16 N/A
9:35 pm 21:35 Cloudy 39 4 18 -8 42 42 undefined N/A 30.21 1023 10 16 N/A
9:55 pm 21:55 Cloudy 39 4 18 -8 42 42 undefined N/A 30.21 1023 10 16 N/A
10:15 pm 22:15 Cloudy 39 4 18 -8 42 42 undefined N/A 30.21 1023 10 16 N/A
10:36 pm 22:36 Cloudy 39 4 18 -8 42 42 undefined N/A 30.21 1023 10 16 N/A
10:56 pm 22:56 Mostly Cloudy 39 4 18 -8 42 42 undefined N/A 30.21 1023 10 16 N/A
11:16 pm 23:16 Partly Cloudy 39 4 18 -8 42 42 undefined N/A 30.21 1023 10 16 N/A
11:36 pm 23:36 Mostly Cloudy with Light Rain 43 6 19 -7 39 39 undefined N/A 30.18 1022 10 16 N/A
11:56 pm 23:56 Cloudy with Light Rain 39 4 27 -3 61 61 undefined N/A 30.18 1022 7 11 N/A

Powered by AerisWeather